Regional Weather Roundup
Issued by NWS

Home | Current Version | Previous Version | Graphics & Text | Print | Product List | Glossary On
Versions: 1 2 3 4 5 6 7 8 9 10 11 12 13 14 15 16 17 18 19 20 21 22 23 24 25 26 27 28 29 30 31 32 33 34 35 36 37 38 39 40 41 42 43 44 45 46 47 48 49 50
000
ASUS43 KLMK 021010
RWRKY
KENTUCKY REGIONAL WEATHER ROUNDUP
NATIONAL WEATHER SERVICE LOUISVILLE KY
600 AM EDT MON MAY 02 2016

NOTE "FAIR" INDICATES FEW OR NO CLOUDS BELOW 12,000 FEET
WITH NO SIGNIFICANT WEATHER AND/OR OBSTRUCTIONS TO VISIBILITY.

KYZ001>023-026-027-061>063-070>075-021100-
WESTERN AND SOUTH CENTRAL KENTUCKY

CITY           SKY/WX    TMP DP  RH WIND       PRES   REMARKS
PADUCAH        CLEAR     55  51  86 N6        30.01S
HENDERSON      CLOUDY    55  50  82 W7        30.01R
OWENSBORO      CLEAR     56  53  89 W6        30.01R
HOPKINSVILLE   CLOUDY    59  52  76 N8        30.00S
BOWLING GREEN  CLOUDY    63  51  65 VRB6      29.99S
GLASGOW        CLOUDY    63  53  72 N5        29.98S
$$

KYZ024-025-028>034-038-045-046-053-021100-
NORTH CENTRAL KENTUCKY

CITY           SKY/WX    TMP DP  RH WIND       PRES   REMARKS
LOUISVILLE/SDF CLOUDY    62  56  80 W7        29.96R
LOUISVILLE/LOU CLOUDY    62  56  80 W5        29.97R
FORT KNOX      PTCLDY    57  55  92 W6        29.96S
$$

KYZ035>037-039>044-047>052-055>060-089>105-021100-
NORTHEAST KENTUCKY

CITY           SKY/WX    TMP DP  RH WIND       PRES   REMARKS
LEXINGTON      CLEAR     61  58  90 W8        29.96R
COVINGTON      CLOUDY    58  57  97 CALM      29.91S
FRANKFORT      CLOUDY    61  56  83 W3        29.95R
$$

KYZ054-064>069-076>088-106>120-021100-
SOUTHEAST KENTUCKY

CITY           SKY/WX    TMP DP  RH WIND       PRES   REMARKS
JACKSON        CLOUDY    65  60  84 VRB3      29.96R
LONDON         MOCLDY    65  60  84 S5        29.97S
SOMERSET       CLOUDY    64  61  88 CALM      29.98R
MIDDLESBORO    CLOUDY    62  62 100 CALM      30.00S
MONTICELLO     CLOUDY    67  63  87 W13       29.99R
$$





USA.gov is the U.S. government's official web portal to all federal, state and local government web resources and services.